This is the latest recevied weather packets stored in our database for station/object ES2ADF-5. If no packets are shown the sender has not sent any weather packets the latest 10 day(s).
| Time | Temp. | Humidity | Pressure | Rain* | Wind** | Luminosity | Snow |
|---|---|---|---|---|---|---|---|
| 1777621788 | 15° C | 53% | 1020.8 hPa | 0 mm | - | - | - |
| 1777621488 | 15.56° C | 54% | 1021 hPa | 0 mm | - | - | - |
| 1777621188 | 15.56° C | 54% | 1020.9 hPa | 0 mm | - | - | - |
| 1777620887 | 15.56° C | 53% | 1021 hPa | 0 mm | - | - | - |
| 1777620587 | 16.11° C | 52% | 1020.9 hPa | 0 mm | - | - | - |
| 1777620287 | 16.11° C | 50% | 1021.1 hPa | 0 mm | - | - | - |
| 1777619987 | 16.67° C | 50% | 1020.9 hPa | 0 mm | - | - | - |
| 1777619686 | 17.78° C | 47% | 1021 hPa | 0 mm | - | - | - |
| 1777619386 | 18.89° C | 45% | 1021.1 hPa | 0 mm | - | - | - |
| 1777619086 | 20.56° C | 43% | 1021.1 hPa | 0 mm | - | - | - |
| 1777618785 | 22.22° C | 42% | 1020.9 hPa | 0 mm | - | - | - |
| 1777618485 | 22.78° C | 42% | 1020.9 hPa | 0 mm | - | - | - |
| 1777618185 | 22.78° C | 42% | 1020.8 hPa | 0 mm | - | - | - |
| 1777617884 | 22.22° C | 43% | 1020.9 hPa | 0 mm | - | - | - |
| 1777617584 | 22.22° C | 43% | 1020.9 hPa | 0 mm | - | - | - |
| 1777617284 | 21.67° C | 44% | 1020.6 hPa | 0 mm | - | - | - |
| 1777616984 | 21.67° C | 43% | 1020.7 hPa | 0 mm | - | - | - |
| 1777616683 | 21.67° C | 44% | 1020.8 hPa | 0 mm | - | - | - |
| 1777616383 | 21.67° C | 44% | 1020.7 hPa | 0 mm | - | - | - |
| 1777616083 | 21.11° C | 45% | 1020.7 hPa | 0 mm | - | - | - |
| 1777615782 | 21.11° C | 46% | 1020.8 hPa | 0 mm | - | - | - |
| 1777615482 | 20.56° C | 46% | 1020.8 hPa | 0 mm | - | - | - |
| 1777615182 | 20.56° C | 47% | 1020.9 hPa | 0 mm | - | - | - |
| 1777614882 | 20.56° C | 47% | 1021 hPa | 0 mm | - | - | - |
| 1777614581 | 20.56° C | 47% | 1021 hPa | 0 mm | - | - | - |
* Rain latest hour (hover to see other rain measurements)
** Current wind speed in m/s (hover to see current wind gust speed)